DateTimeUTC,F1_A11,F1_S11,BsB_S11,BsG_S11,BsR_S11,BbsB_S11,BbsG_S11,BbsR_S11,BaB_A11,BaG_A11,BaR_A11,Tu_S11,T_S11,Uu_S11,U_S11,P_S11,T1_A11
2021-07-08T21:00:00Z,00000200,20000000,,,,,,,0000.02,-000.16,-000.20,18.2,24.9,03.2,02.1,0662.9,31.0
2021-07-08T21:01:00Z,00000200,20000000,,,,,,,-000.05,0000.18,-000.00,18.2,24.9,03.2,02.1,0662.9,31.0
2021-07-08T21:02:00Z,00000200,20000000,,,,,,,-000.15,-000.21,0000.15,18.1,24.9,03.2,02.1,0662.9,31.0
2021-07-08T21:03:00Z,00000200,60000000,,,,,,,0000.07,0000.15,-000.24,18.1,24.9,03.2,02.1,0662.9,31.0
2021-07-08T21:04:00Z,00000200,40000000,0000.64,0000.28,0000.18,0000.04,-000.15,0000.20,0000.09,0000.33,0000.12,18.1,24.6,03.2,02.1,0663.9,31.0
2021-07-08T21:05:00Z,00000200,00000000,0000.69,0000.22,0000.10,-000.01,0000.27,0000.04,0000.28,-000.19,0000.04,18.1,24.6,03.2,02.2,0664.0,31.0
2021-07-08T21:06:00Z,00000200,00000000,0000.09,-000.28,0000.00,0000.19,-000.25,0000.08,0000.01,0000.43,0000.22,18.2,24.6,03.3,02.2,0664.0,31.0
2021-07-08T21:07:00Z,00000200,00000000,0000.32,-000.10,0000.39,-000.11,-000.05,0000.01,0000.22,-000.08,0000.08,18.2,24.6,03.3,02.2,0664.0,31.0
2021-07-08T21:08:00Z,00000200,00000000,0000.84,-000.19,0000.33,0000.52,0000.12,0000.07,0000.28,0000.13,0000.28,18.3,24.6,03.3,02.2,0664.1,31.0
2021-07-08T21:09:00Z,00000200,00000000,0000.50,0000.22,0000.10,-000.01,-000.19,-000.07,-000.27,0000.27,-000.10,18.4,24.7,03.3,02.2,0664.0,31.0
2021-07-08T21:10:00Z,00000200,00000000,0000.30,0000.12,0000.02,0000.05,0000.04,-000.19,0000.10,-000.06,0000.21,18.5,24.7,03.4,02.3,0664.1,31.0
2021-07-08T21:11:00Z,00000200,00000000,0000.69,0000.08,0000.25,-000.03,0000.01,0000.01,0000.10,-000.06,0000.03,18.5,24.8,03.4,02.3,0664.0,31.0
2021-07-08T21:12:00Z,00000200,00000000,0000.38,-000.00,-000.00,-000.24,-000.03,0000.08,0000.10,-000.06,-000.09,18.6,24.8,03.3,02.3,0664.0,31.0
2021-07-08T21:13:00Z,00000200,00000000,0000.61,-000.05,0000.34,0000.02,0000.05,0000.46,-000.36,-000.08,-000.07,18.5,24.8,03.3,02.3,0664.0,31.0
2021-07-08T21:14:00Z,00000200,00000000,0000.36,0000.04,0000.37,0000.18,-000.03,-000.05,-000.08,-000.09,0000.19,18.5,24.8,03.4,02.3,0664.1,31.0
2021-07-08T21:15:00Z,00000200,00000000,-000.84,-000.19,0000.16,-000.08,0000.03,-000.00,0000.58,0000.23,-000.22,18.4,24.7,03.3,02.2,0664.1,31.0
2021-07-08T21:16:00Z,00000200,00000000,0000.42,0000.26,0000.10,-000.00,-000.15,-000.02,-000.36,-000.13,0000.14,18.4,24.7,03.4,02.3,0664.1,31.0
2021-07-08T21:17:00Z,00000200,00000000,0000.68,0000.02,0000.08,0000.84,0000.11,0000.12,-000.13,0000.17,-000.23,18.4,24.7,03.3,02.2,0664.1,31.0
2021-07-08T21:18:00Z,00000200,00000000,0000.52,0000.03,0000.11,0000.13,-000.20,-000.09,0000.13,0000.08,0000.02,18.3,24.7,03.2,02.2,0664.1,31.0
2021-07-08T21:19:00Z,00000200,00000000,0000.60,-000.07,0000.43,0000.07,-000.24,0000.17,0000.14,-000.07,0000.27,18.3,24.6,03.3,02.2,0664.1,31.0
2021-07-08T21:20:00Z,00000200,00000000,-000.02,0000.09,0000.24,0000.17,-000.02,0000.01,0000.26,0000.17,-000.10,18.3,24.6,03.3,02.2,0664.1,31.0
2021-07-08T21:21:00Z,00000200,00000000,0000.44,-000.03,0000.11,0000.17,0000.15,0000.27,-000.04,-000.08,0000.39,18.3,24.7,03.2,02.2,0664.1,31.0
2021-07-08T21:22:00Z,00000200,00000000,0000.81,0000.05,-000.14,0000.21,-000.01,0000.02,-000.21,-000.16,-000.15,18.4,24.7,03.2,02.2,0664.2,31.0
2021-07-08T21:23:00Z,00000200,00000000,0000.51,-000.15,0000.19,0000.76,-000.28,0000.06,0000.28,0000.23,-000.02,18.5,24.7,03.2,02.2,0664.2,31.0
2021-07-08T21:24:00Z,00000200,00000000,0000.15,0000.16,0000.55,-000.11,-000.19,-000.11,0000.05,0000.03,-000.06,18.5,24.8,03.2,02.2,0664.2,31.0
2021-07-08T21:25:00Z,00000200,00000000,0000.76,0000.03,0000.22,0000.30,0000.12,0000.16,-000.35,-000.12,0000.19,18.5,24.8,03.1,02.2,0664.2,31.0
2021-07-08T21:26:00Z,00000200,00000000,0000.30,0000.05,0000.31,0000.08,-000.05,-000.04,0000.13,0000.16,-000.13,18.5,24.8,03.2,02.2,0664.2,31.0
2021-07-08T21:27:00Z,00000200,00000000,0001.31,-000.02,0000.05,0000.40,-000.18,0000.06,0000.01,-000.08,-000.16,18.4,24.7,03.2,02.2,0664.2,31.0
2021-07-08T21:28:00Z,00000200,00000000,0000.53,-000.13,0000.48,-000.12,-000.06,-000.28,0000.25,-000.07,0000.14,18.4,24.7,03.2,02.1,0664.1,31.0
2021-07-08T21:29:00Z,00000200,00000000,0000.56,0000.04,-000.31,0000.40,0000.06,-000.19,-000.06,0000.14,-000.12,18.4,24.7,03.3,02.2,0664.0,31.0
2021-07-08T21:30:00Z,00000200,00000000,0000.54,-000.02,0000.15,0000.00,0000.03,0000.09,0000.05,0000.19,0000.29,18.3,24.6,03.3,02.3,0664.1,31.0
2021-07-08T21:31:00Z,00000200,00000000,0000.52,-000.17,0000.26,0000.30,-000.07,0000.10,-000.09,-000.08,-000.24,18.3,24.6,03.3,02.2,0664.1,30.9
2021-07-08T21:32:00Z,00000200,00000000,0000.31,-000.21,0000.37,0000.33,0000.09,-000.04,0000.32,0000.03,0000.05,18.2,24.6,03.3,02.2,0664.2,31.0
2021-07-08T21:33:00Z,00000200,00000000,0000.80,-000.09,-000.19,0000.38,-000.01,-000.24,0000.07,0000.05,0000.02,18.2,24.6,03.3,02.2,0664.2,30.9
2021-07-08T21:34:00Z,00000200,00000000,0000.46,0000.27,0000.25,-000.09,-000.08,0000.11,-000.02,0000.17,0000.16,18.1,24.5,03.4,02.3,0664.3,30.9
2021-07-08T21:35:00Z,00000200,00000000,0000.34,-000.17,0000.05,0000.55,0000.14,-000.05,0000.20,-000.12,0000.14,18.1,24.5,03.4,02.3,0664.3,30.9
2021-07-08T21:36:00Z,00000200,00000000,0000.36,-000.13,0000.11,0000.05,0000.15,-000.47,0000.15,0000.34,0000.22,18.2,24.5,03.4,02.3,0664.3,31.0
2021-07-08T21:37:00Z,00000200,00000000,0000.75,0000.08,0000.09,-000.02,0000.39,-000.16,-000.15,-000.06,-000.07,18.3,24.6,03.4,02.3,0664.3,31.0
2021-07-08T21:38:00Z,00000200,00000000,0000.70,0000.07,0000.33,0000.58,-000.13,-000.22,0000.18,0000.05,0000.09,18.3,24.6,03.4,02.3,0664.4,31.0
2021-07-08T21:39:00Z,00000200,00000000,0000.06,0000.23,0000.25,0000.04,0000.16,-000.13,0000.08,-000.01,0000.27,18.4,24.7,03.3,02.3,0664.4,31.0
2021-07-08T21:40:00Z,00000200,00000000,0000.60,-000.03,-000.00,-000.14,-000.10,-000.17,-000.20,0000.12,-000.26,18.5,24.7,03.4,02.3,0664.4,31.0
2021-07-08T21:41:00Z,00000200,00000000,0000.88,0000.02,0000.07,0000.16,0000.18,0000.07,-000.07,0000.05,-000.23,18.5,24.7,03.3,02.3,0664.4,31.0
2021-07-08T21:42:00Z,00000200,00000000,0000.26,-000.10,-000.16,0000.00,0000.04,-000.15,-000.20,0000.02,0000.16,18.4,24.7,03.3,02.3,0664.5,31.0
2021-07-08T21:43:00Z,00000200,00000000,0000.54,-000.21,0000.17,0000.09,0000.22,-000.30,0000.39,-000.16,0000.21,18.4,24.7,03.4,02.3,0664.5,31.0
2021-07-08T21:44:00Z,00000200,00000000,0000.04,-000.02,0000.13,-000.07,-000.13,-000.12,-000.06,-000.03,-000.20,18.3,24.6,03.4,02.3,0664.4,31.0
2021-07-08T21:45:00Z,00000200,00000000,0000.06,-000.11,0000.42,-000.50,-000.02,-000.06,0000.04,0000.22,0000.40,18.3,24.6,03.4,02.3,0664.5,30.9
2021-07-08T21:46:00Z,00000200,00000000,0000.37,-000.25,0000.08,0000.09,-000.02,0000.09,0000.32,-000.03,-000.34,18.2,24.6,03.4,02.3,0664.5,30.9
2021-07-08T21:47:00Z,00000200,00000000,0000.56,0000.05,0000.08,0000.31,-000.10,-000.12,-000.23,-000.27,0000.25,18.2,24.5,03.5,02.4,0664.6,30.9
2021-07-08T21:48:00Z,00000200,00000000,0000.67,-000.10,0000.15,0000.31,-000.36,0000.17,-000.14,0000.07,-000.08,18.2,24.5,03.4,02.3,0664.4,30.9
2021-07-08T21:49:00Z,00000200,00000000,0000.98,0000.07,-000.02,-000.00,-000.03,-000.08,0000.19,0000.19,-000.17,18.1,24.5,03.4,02.3,0664.4,30.9
2021-07-08T21:50:00Z,00000200,00000000,0000.02,-000.27,-000.00,-000.24,0000.22,-000.38,-000.08,0000.05,-000.07,18.1,24.5,03.3,02.2,0664.5,30.9
2021-07-08T21:51:00Z,00000200,00000000,-000.36,-000.10,0000.28,-000.07,0000.12,0000.17,0000.03,-000.01,-000.02,18.2,24.5,03.3,02.3,0664.5,31.0
2021-07-08T21:52:00Z,00000200,00000000,0001.36,-000.15,0000.17,-000.05,0000.05,0000.20,-000.01,0000.19,0000.34,18.2,24.5,03.3,02.2,0664.5,31.0
2021-07-08T21:53:00Z,00000200,00000000,0000.38,-000.04,0000.09,0000.48,0000.01,-000.06,0000.33,-000.28,-000.10,18.3,24.6,03.4,02.3,0664.6,31.0
2021-07-08T21:54:00Z,00000200,00000000,0000.23,0000.25,0000.42,0000.18,0000.25,0000.02,-000.18,0000.41,-000.03,18.4,24.6,03.4,02.3,0664.4,31.0
2021-07-08T21:55:00Z,00000200,00000000,0000.49,-000.21,0000.30,-000.19,-000.02,-000.19,-000.17,-000.26,-000.09,18.5,24.7,03.2,02.2,0664.4,31.0
2021-07-08T21:56:00Z,00000200,00000000,0000.11,-000.02,0000.39,-000.37,0000.09,-000.03,-000.07,0000.02,0000.15,18.4,24.7,03.2,02.2,0664.4,31.0
2021-07-08T21:57:00Z,00000200,40000000,,,,,,,-000.03,-000.04,0000.11,18.4,24.7,03.2,02.2,0664.4,31.0
2021-07-08T21:58:00Z,00000200,60000000,,,,,,,0000.16,-000.05,-000.20,18.1,24.7,03.2,02.1,0663.5,31.0
2021-07-08T21:59:00Z,00000200,20000000,,,,,,,-000.51,-000.02,-000.17,18.1,24.8,03.2,02.1,0663.5,31.0
